Regional Weather Roundup
Issued by NWS

Home | Current Version | Previous Version | Graphics & Text | Print | Product List | Glossary On
Versions: 1 2 3 4 5 6 7 8 9 10 11 12 13 14 15 16 17 18 19 20 21 22 23 24 25 26 27 28 29 30 31 32 33 34 35 36 37 38 39 40 41 42 43 44 45 46 47 48 49 50
000
ASUS45 KSLC 261610
RWRUT

UTAH REGIONAL WEATHER ROUNDUP
NATIONAL WEATHER SERVICE SALT LAKE CITY UT
1000 AM MDT WED APR 26 2017

UTZ001>011-023>025-261700-

NORTHERN UTAH

CITY           SKY/WX    TMP DP  RH WIND       PRES   REMARKS
BRIGHAM CITY   CLOUDY    49  33  52 S7        29.88F
DUGWAY         PTSUNNY   46  33  60 SE1       29.91F
HILL AFB       CLOUDY    48  32  54 S5        29.90F
LOGAN          LGT RAIN  48  36  63 SE5       29.87F
OGDEN          CLOUDY    49  34  56 W7        29.89F
SALT LAKE CITY CLOUDY    49  37  63 SE10      29.90F
TOOELE VALLEY  CLOUDY    45  36  70 SW7       29.91R
WENDOVER       PTSUNNY   54  30  40 VRB3      29.89F
HEBER CITY     CLOUDY    36  30  80 CALM      29.92F
WEST JORDAN    CLOUDY    49  45  84 S15       29.92S

$$

UTZ011>015-024>027-261700-

CENTRAL/NORTHEAST UTAH

CITY           SKY/WX    TMP DP  RH WIND       PRES   REMARKS
PROVO AIRPORT  CLOUDY    44  34  67 SE6       29.94F
MOAB/CANYONLAN PTSUNNY   52  29  41 W10       29.91F
DELTA          CLOUDY    46  28  49 S9        29.94F
PRICE          CLOUDY    45  26  47 SW6       29.93R
ROOSEVELT      CLOUDY    45  32  61 CALM      29.92F
VERNAL         PTSUNNY   45  31  58 E6        29.90F

$$

UTZ013>016-019>022-027-261700-

SOUTHERN UTAH

CITY           SKY/WX    TMP DP  RH WIND       PRES   REMARKS
BRYCE CANYON   PTSUNNY   42  17  36 NW12      29.99R
CEDAR CITY     CLOUDY    44  27  51 N3        29.96S
MILFORD        CLOUDY    45  25  45 SW13      29.96R
ST GEORGE      CLOUDY    56  23  27 SW5       29.94F
HANKSVILLE     PTSUNNY   48  23  37 CALM      29.95S
BLANDING       SUNNY     49  24  37 S6        30.01F

$$

REGIONAL REPORTS     COLORADO/ARIZONA

CITY           SKY/WX    TMP DP  RH WIND       PRES   REMARKS
CRAIG, CO      PTSUNNY   42  33  70 CALM      29.89F
GRAND JUNCTION MOSUNNY   48  36  63 CALM      29.91F
RIFLE, CO      PTSUNNY   44  33  65 E3        29.92F
MONTROSE, CO   CLOUDY    46  31  55 VRB7      29.95F
CORTEZ, CO     SUNNY     50  29  44 W9        29.93F
COLORADO CITY    N/A     54  23  30 CALM      30.00S
PAGE, AZ       SUNNY     54  22  28 VRB5      29.94S
GRAND CANYON   MOSUNNY   49  18  29 SW9       30.01S
KINGMAN, AZ    MOSUNNY   64  19  17 CALM      29.95R
FLAGSTAFF, AZ  MOSUNNY   48  13  24 SW7       30.01S

$$

REGIONAL REPORTS    NEVADA/IDAHO/WYOMING

CITY           SKY/WX    TMP DP  RH WIND       PRES   REMARKS
LAS VEGAS, NV  MOSUNNY   67  23  19 VRB3      29.88F
ELY, NY        CLOUDY    45  27  49 CALM      29.97F
ELKO, NV       CLOUDY    45  37  73 SW7       29.93R
POCATELLO, ID  PTSUNNY   46  36  68 SW21      29.86S
BURLEY, ID     PTSUNNY   49  37  63 W16       29.84F
FORT BRIDGER,  CLOUDY    43  31  62 W22G31    29.91S
EVANSTON, WY   CLOUDY    37  29  72 W20G26    29.89F WCI  27
ROCK SPRINGS,  CLOUDY    40  30  67 W18G25    29.86F WCI  31
KEMMERER, WY   LGT SNOW  34  32  93 SW12      29.87F WCI  25

$$



USA.gov is the U.S. government's official web portal to all federal, state and local government web resources and services.